Location: Aciu?a
(46.2833°N, 22.4500°E)
Time: 06:07:55
(UTC+00:00)

Cosmos 2360 Rocket - Pass Details

Date: 25 October 2021
Orbit: 832 x 846 km, 71.0° (Epoch: 04 December)

Event Time Altitude Azimuth Distance (km) Brightness Sun altitude
Rises 16:15:42 0° 175° (S) 3,373 5.4 -9.1°
Reaches altitude 10° 16:18:21 10° 165° (SSE) 2,446 4.5 -9.6°
Maximum altitude 16:23:13 31° 104° (ESE) 1,427 2.9 -10.4°
Drops below altitude 10° 16:28:08 10° 44° (NE) 2,469 4.2 -11.3°
Enters shadow 16:29:58 - 37° (NE) 3,103 4.7 -11.6°
